This demonstration page uses our WeatherBlox Daily Observations layout. Learn more.

Left ArrowRight Arrow

40.92501, -98.34201

Hourly Observations for May 12, 2020

Temp ( °F °C ) Dew Point ( °F °C ) Humidity (%) Winds ( mph kmh ) Pressure ( in mb ) Visibility ( mi km ) Precip ( " mm )
12:53 am 00:53 Cloudy 44 6.7 28 -2.2 53 53 Calm 30.28 1025 10 16 0.00 0.00
1:53 am 01:53 Cloudy 44 6.7 28 -2.2 53 53 Calm 30.27 1025 10 16 0.00 0.00
2:53 am 02:53 Cloudy 44 6.7 26 -3.3 49 49 Calm 30.26 1025 10 16 0.00 0.00
3:53 am 03:53 Cloudy 44 6.7 27 -2.8 51 51 Calm 30.26 1025 10 16 0.00 0.00
4:53 am 04:53 Cloudy 43 6.1 29 -1.7 58 58 ENE 5 7 30.24 1024 10 16 0.00 0.00
5:53 am 05:53 Cloudy 43 6.1 29 -1.7 58 58 Calm 30.25 1024 10 16 0.00 0.00
6:53 am 06:53 Cloudy 43 6.1 30 -1.1 60 60 Calm 30.25 1025 10 16 0.00 0.00
7:53 am 07:53 Cloudy 44 6.7 29 -1.7 55 55 E 3 6 30.26 1025 10 16 0.00 0.00
8:53 am 08:53 Cloudy 45 7.2 29 -1.7 54 54 ENE 6 9 30.26 1025 10 16 0.00 0.00
9:53 am 09:53 Cloudy 47 8.3 29 -1.7 50 50 E 9 15 30.24 1024 10 16 0.00 0.00
10:53 am 10:53 Cloudy 49 9.4 28 -2.2 44 44 ESE 10 17 30.23 1024 10 16 0.00 0.00
11:53 am 11:53 Cloudy 50 10 27 -2.8 41 41 SE 10 17 30.22 1023 10 16 0.00 0.00
12:53 pm 12:53 Cloudy 51 10.6 27 -2.8 39 39 SE 12 19 30.19 1022 10 16 0.00 0.00
1:53 pm 13:53 Cloudy 55 12.8 29 -1.7 37 37 SSE 14 22 30.15 1021 10 16 0.00 0.00
2:53 pm 14:53 Cloudy 56 13.3 29 -1.7 36 36 SSE 13 20 30.13 1020 10 16 0.00 0.00
3:53 pm 15:53 Cloudy 58 14.4 30 -1.1 35 35 SE 14 22 30.10 1019 10 16 0.00 0.00
4:53 pm 16:53 Cloudy 58 14.4 33 0.6 39 39 SSE 12 19 30.09 1019 10 16 0.00 0.00
5:53 pm 17:53 Cloudy 59 15 33 0.6 38 38 SE 15 24 30.07 1018 10 16 0.00 0.00
6:53 pm 18:53 Cloudy 58 14.4 34 1.1 41 41 SSE 14 22 30.05 1018 10 16 0.00 0.00
7:53 pm 19:53 Cloudy 56 13.3 34 1.1 44 44 SSE 14 22 30.04 1017 10 16 0.00 0.00
8:53 pm 20:53 Cloudy 54 12.2 34 1.1 47 47 SSE 14 22 30.04 1017 10 16 0.00 0.00
9:53 pm 21:53 Cloudy 53 11.7 35 1.7 51 51 SSE 12 19 30.04 1017 10 16 0.00 0.00
10:53 pm 22:53 Cloudy 50 10 39 3.9 66 66 S 15 24 30.05 1018 10 16 0.00 0.00
11:53 pm 23:53 Cloudy 50 10 39 3.9 66 66 S 10 17 30.04 1017 10 16 0.00 0.00

Powered by AerisWeather